TimeEDT,TemperatureF,Dew PointF,Humidity,Sea Level PressureIn,VisibilityMPH,Wind Direction,Wind SpeedMPH,Gust SpeedMPH,PrecipitationIn,Events,Conditions,WindDirDegrees,DateUTC
12:51 AM,64.0,61.0,90,30.25,5.0,North,3.5,-,0.00,,Overcast,350,2013-10-14 04:51:00
1:06 AM,62.6,60.8,94,30.26,5.0,Calm,Calm,-,N/A,,Overcast,0,2013-10-14 05:06:00
1:16 AM,64.4,60.8,88,30.26,5.0,Calm,Calm,-,N/A,,Overcast,0,2013-10-14 05:16:00
1:35 AM,62.6,60.8,94,30.26,2.5,Calm,Calm,-,0.01,Rain,Light Rain,0,2013-10-14 05:35:00
1:44 AM,62.6,60.8,94,30.26,4.0,NNE,3.5,-,0.01,Rain,Light Rain,20,2013-10-14 05:44:00
1:51 AM,63.0,61.0,93,30.25,4.0,Calm,Calm,-,0.01,,Overcast,0,2013-10-14 05:51:00
2:51 AM,63.0,61.0,93,30.24,4.0,Calm,Calm,-,N/A,,Overcast,0,2013-10-14 06:51:00
2:58 AM,62.6,60.8,94,30.25,4.0,NE,3.5,-,N/A,,Overcast,40,2013-10-14 06:58:00
3:09 AM,62.6,60.8,94,30.25,4.0,NE,5.8,-,N/A,,Overcast,50,2013-10-14 07:09:00
3:51 AM,63.0,60.1,90,30.24,5.0,Calm,Calm,-,N/A,,Overcast,0,2013-10-14 07:51:00
4:51 AM,63.0,60.1,90,30.24,6.0,NNE,5.8,-,N/A,,Overcast,20,2013-10-14 08:51:00
5:51 AM,62.1,59.0,90,30.24,5.0,NE,4.6,-,N/A,,Overcast,40,2013-10-14 09:51:00
6:51 AM,62.1,57.9,86,30.26,7.0,North,4.6,-,N/A,,Overcast,360,2013-10-14 10:51:00
7:51 AM,61.0,57.9,90,30.26,6.0,Calm,Calm,-,N/A,,Overcast,0,2013-10-14 11:51:00
8:51 AM,61.0,57.9,90,30.27,5.0,North,4.6,-,N/A,,Overcast,350,2013-10-14 12:51:00
9:51 AM,61.0,57.0,87,30.29,6.0,North,6.9,-,N/A,,Overcast,350,2013-10-14 13:51:00
10:51 AM,62.1,57.9,86,30.28,6.0,NNE,3.5,-,N/A,,Overcast,30,2013-10-14 14:51:00
11:43 AM,62.6,57.2,82,30.28,9.0,Calm,Calm,-,N/A,,Overcast,0,2013-10-14 15:43:00
11:51 AM,63.0,57.0,81,30.27,10.0,Calm,Calm,-,N/A,,Overcast,0,2013-10-14 15:51:00
12:51 PM,64.0,57.9,80,30.27,10.0,ENE,4.6,-,N/A,,Overcast,70,2013-10-14 16:51:00
1:51 PM,64.9,57.9,78,30.24,10.0,NNE,4.6,-,N/A,,Overcast,20,2013-10-14 17:51:00
2:51 PM,64.9,57.9,78,30.22,10.0,NNE,5.8,-,N/A,,Overcast,20,2013-10-14 18:51:00
3:51 PM,66.9,59.0,76,30.20,10.0,East,5.8,-,N/A,,Overcast,80,2013-10-14 19:51:00
4:51 PM,66.0,59.0,78,30.19,10.0,ENE,4.6,-,N/A,,Overcast,60,2013-10-14 20:51:00
5:51 PM,64.0,59.0,84,30.20,10.0,NNE,5.8,-,N/A,,Overcast,20,2013-10-14 21:51:00
6:51 PM,64.0,59.0,84,30.20,10.0,NE,3.5,-,N/A,,Overcast,50,2013-10-14 22:51:00
7:51 PM,64.0,59.0,84,30.21,10.0,NE,4.6,-,N/A,,Overcast,40,2013-10-14 23:51:00
8:25 PM,62.6,59.0,88,30.22,9.0,Calm,Calm,-,N/A,,Overcast,0,2013-10-15 00:25:00
8:51 PM,63.0,59.0,87,30.20,9.0,East,3.5,-,N/A,,Overcast,80,2013-10-15 00:51:00
9:51 PM,63.0,60.1,90,30.20,8.0,Calm,Calm,-,N/A,,Overcast,0,2013-10-15 01:51:00
10:51 PM,62.1,60.1,93,30.20,6.0,ESE,3.5,-,N/A,,Overcast,120,2013-10-15 02:51:00
11:51 PM,62.1,60.1,93,30.19,6.0,Calm,Calm,-,N/A,,Overcast,0,2013-10-15 03:51:00